Find Comstar 201

NORAD ID: 8838 Int'l Des: 1976-042 Owner: COM Country: US operational
HEOCIRCULAR

实时位置

正在加载3D地球...

关于 Comstar 201

正在加载描述...

即将过境

Passes for default location (London). Set your location on the main map for personalized predictions.

高度历史

Loading altitude history...

两行轨道根数

1 08838U 76042A 26105.56617154 -.00000108 00000-0 00000-0 0 9995
2 08838 8.1022 305.0810 0005082 3.5382 4.7810 0.99816736119959
Epoch: Apr 15, 2026 • Age: 52 hours

当前状态

高度 35902.1 km
速度 3.07 km/s
星下点 7.10°N, 97.86°W
类型 other

Most Searched